Simultaneous Nadir Overpasses (SNOs) Predictions

Prediction of SNOs between FY3D and METOP-C Satellite Orbit:

Table of predicted SNOs for the next 14.0 days since TLE Epoch: 3/22/2022
Index Date (FY3D) Time (FY3D) Lat,Lon (FY3D) SZA (FY3D ) Date (METOP-C) Time (METOP-C) Lat,Lon (METOP-C) SZA (METOP-C ) Distance(km) Time Diff (sec)
1 04/04/2022 19:10:12 -74.55, 65.26 111.29 04/04/2022 19:11:18 -74.50, 68.30 111.44 90.28 66
2 04/04/2022 20:00:54 74.32,-126.83 68.45 04/04/2022 20:02:03 74.26,-124.99 68.32 55.92 69
3 04/04/2022 20:51:36 -74.19, 40.82 111.71 04/04/2022 20:52:47 -74.14, 42.03 111.81 36.95 71
4 04/04/2022 21:42:18 73.96,-151.29 68.03 04/04/2022 21:43:31 73.95,-151.11 68.00 5.54 73
5 04/04/2022 22:33:02 -73.93, 16.11 112.02 04/04/2022 22:34:13 -73.92, 16.15 112.04 1.37 71
6 04/04/2022 23:23:49 73.94,-176.61 67.98 04/04/2022 23:24:53 73.93,-176.50 67.96 3.69 64
7 04/05/2022 00:14:33 -73.90, -9.22 112.07 04/05/2022 00:15:35 -73.90, -9.24 112.09 0.64 62
8 04/05/2022 01:05:20 73.92, 158.06 67.93 04/05/2022 01:06:15 73.91, 158.11 67.91 1.94 55
9 04/05/2022 01:56:04 -73.88, -34.55 112.12 04/05/2022 01:56:57 -73.88, -34.63 112.13 2.48 53
10 04/05/2022 02:46:51 73.90, 132.73 67.88 04/05/2022 02:47:37 73.89, 132.72 67.87 1.04 46



Historial Predications of SNOs between FY3D and METOP-C
